Regional Weather Roundup
Issued by NWS

Home | Current Version | Previous Version | Graphics & Text | Print | Product List | Glossary On
Versions: 1 2 3 4 5 6 7 8 9 10 11 12 13 14 15 16 17 18 19 20 21 22 23 24 25 26 27 28 29 30 31 32 33 34 35 36 37 38 39 40 41 42 43 44 45 46 47 48 49 50
000
ASUS43 KMPX 250401
RWRMN
WEATHER ROUNDUP FOR MINNESOTA
NATIONAL WEATHER SERVICE TWIN CITIES/CHANHASSEN MN
1000 PM CST SAT FEB 24 2018


NOTE: "FAIR" INDICATES FEW OR NO CLOUDS BELOW 12,000 FEET WITH NO
SIGNIFICANT WEATHER AND/OR OBSTRUCTIONS TO VISIBILITY. N/A MEANS
CURRENT SKY AND/OR WEATHER CONDITIONS ARE NOT AVAILABLE.

MNZ060>063-068>070-250500-
   Twin Cities Metro

CITY           SKY/WX    TMP DP  RH WIND       PRES   REMARKS
TWIN CITIES    SNOW      29  29 100 S3        29.48F VSB 1/2
ST PAUL        LGT SNOW  29  28  96 CALM      29.49F VSB 1
CRYSTAL        LGT SNOW  28  26  92 CALM      29.47F VSB 3/4
BLAINE         MIX PCPN  30  30 100 CALM      29.47F VSB 1
LAKEVILLE      LGT SNOW  27  27 100 CALM      29.48F
EDEN PRAIRIE   LGT SNOW  28  26  92 MISG      29.48F FOG
SOUTH ST PAUL  LGT SNOW  30  30  99 CALM      29.48F
$$
MNZ001>005-007-008-013>017-022>024-027-028-250500-
   Northwest Minnesota

CITY           SKY/WX    TMP DP  RH WIND       PRES   REMARKS
BEMIDJI        LGT SNOW  19  17  93 N3        29.53F
HALLOCK        LGT SNOW  18  16  93 CALM      29.63F
ROSEAU         LGT SNOW  19  16  86 CALM      29.63F
WARROAD        FAIR      21  14  73 CALM      29.63F
THIEF RVR FALL LGT SNOW  18  16  92 NE5       29.60F FOG     WCI  11
CROOKSTON      LGT SNOW  19  18  93 E6        29.62F WCI  11
FOSSTON        LGT SNOW  16  14  93 N7        29.57F WCI   6
DETROIT LAKES  LGT SNOW  21  19  93 CALM      29.55F
MOORHEAD       FLURRIES  16  14  93 NW8       29.60F WCI   5
PARK RAPIDS    LGT SNOW  20  16  84 NE5       29.51F FOG     WCI  13
MAHNOMEN       FLURRIES  18  16  91 N7        29.55F WCI   9
$$
MNZ006-009>011-018-025>026-250500-
   North Central Minnesota

CITY           SKY/WX    TMP DP  RH WIND       PRES   REMARKS
BAUDETTE       CLOUDY    22  12  65 CALM      29.60F
FLAG ISLAND    CLOUDY    21  10  63 CALM      29.63F
INTL FALLS     SNOW      23  22  96 NE6       29.60F VSB 1/2 WCI  16
WASKISH        LGT SNOW  21  19  93 NE8       29.58F WCI  12
LONGVILLE      LGT SNOW  21  19  93 N3        29.52F
GRAND RAPIDS   SNOW      23  21  92 N3        29.53F VSB 1/2
CRANE LAKE     SNOW      21  19  93 CALM      29.60F VSB 1/2
ORR            LGT SNOW  21  19  93 CALM      29.53F VSB 3/4
COOK           SNOW      23  21  93 CALM      29.55F VSB 1/2
WALKER         LGT SNOW  19  18  93 NE3       29.52F VSB 1
$$
MNZ012-019>021-037-250500-
   Northeast Minnesota

CITY           SKY/WX    TMP DP  RH WIND       PRES   REMARKS
DULUTH         SNOW      26  23  88 E21G36    29.49F VSB 1/4 WCI  12
ELY            LGT SNOW  23  21  93 E8        29.53F WCI  14
HIBBING        SNOW      24  22  91 E7        29.52F VSB 1/4 WCI  16
EVELETH        LGT SNOW  25  23  93 E6        29.53F WCI  18
DULUTH HARBOR  LGT SNOW  27  27 100 NE22      29.55F VSB 3/4 WCI  12
TWO HARBORS    SNOW      30  25  80 E15G21    29.53F VSB 1/2 WCI  19
SILVER BAY     SNOW      27  27 100 E17G30    29.55F VSB 1/2 WCI  14
GRAND MARAIS     N/A     29  25  85 NE25G35   29.61F WCI  14
G MARAIS ARPRT SNOW      21  18  86 NE13G25   29.54F VSB 1/2 WCI   9
$$
MNZ029>031-032-039>041-046>048-054>057-064-250500-
   West Central Minnesota

CITY           SKY/WX    TMP DP  RH WIND       PRES   REMARKS
FERGUS FALLS   LGT SNOW  19  18  93 NW5       29.56F WCI  13
WHEATON        FLURRIES  16  14  93 W8        29.60F WCI   5
MORRIS         LGT SNOW  18  16  93 W9        29.54F WCI   6
ALEXANDRIA     LGT SNOW  20  18  92 NW6       29.52F FOG     WCI  12
ELBOW LAKE     LGT SNOW  19  18  97 W5        29.55F WCI  12
WADENA         LGT SNOW  19  18  93 N6        29.51F WCI  11
GLENWOOD       LGT SNOW  21  19  93 W7        29.52F WCI  13
APPLETON       FLURRIES  16  12  86 W12       29.57F WCI   3
BENSON         LGT SNOW  18  14  86 NW9       29.57F WCI   6
MADISON        FLURRIES  16  12  86 W8        29.59F WCI   5
WILLMAR        CLOUDY    18  16  93 W14       29.57S WCI   4
$$
MNZ033>034-036-042>043-049>051-058-059-250500-
   Central Minnesota

CITY           SKY/WX    TMP DP  RH WIND       PRES   REMARKS
ST CLOUD       LGT SNOW  26  25  96 SW5       29.48F VSB 1   WCI  20
SAUK CENTRE    LGT SNOW  22  21  96 W5        29.51F WCI  16
PAYNESVILLE    CLOUDY    24  23  96 W14       29.51F FOG     WCI  11
AITKIN         LGT SNOW  21  19  93 N5        29.49F VSB 1   WCI  15
PINE RIVER     LGT SNOW  19  18  93 N7        29.55F WCI  10
BRAINERD       LGT SNOW  23  20  88 N6        29.50F VSB 1   WCI  16
STAPLES        LGT SNOW  19  18  93 N5        29.50F WCI  13
LONG PRAIRIE   LGT SNOW  21  19  93 W5        29.51F WCI  15
LITTLE FALLS   LGT SNOW  25  21  86 NW3       29.50F
LITCHFIELD     MIX PCPN  25  23  93 W14       29.52F WCI  13
BUFFALO        LGT SNOW  27  26  94 W3        29.50F
MAPLE LAKE     LGT SNOW  28  27  98 SW3       29.50F
HUTCHINSON     CLOUDY    21  19  93 W16       29.53F FOG     WCI   7
$$
MNZ037-044-045-052-053-250500-
   East Central Minnesota

CITY           SKY/WX    TMP DP  RH WIND       PRES   REMARKS
PRINCETON      LGT SNOW  28  27  93 CALM      29.48F
CAMBRIDGE      LGT SNOW  30  27  86 CALM      29.47F
RUSH CITY      LGT SNOW  29  28  95 E5        29.47F WCI  24
MOOSE LAKE     LGT SNOW  23  21  93 NE6       29.48F VSB 1   WCI  16
HINCKLEY       LGT SNOW  28  27  93 E9        29.47F VSB 1   WCI  20
CLOQUET        LGT SNOW  25  21  86 E15       29.49F VSB 3/4 WCI  12
MCGREGOR       CLOUDY    25  23  93 NE6       29.49F VSB 1/2 WCI  18
$$
MNZ071>073-080-081-089-090-097-098-250500-
   Southwest Minnesota

CITY           SKY/WX    TMP DP  RH WIND       PRES   REMARKS
MONTEVIDEO     FLURRIES  16  12  86 NW7       29.57F WCI   6
GRANITE FALLS  LGT SNOW  16  13  90 SW10      29.60F WCI   3
CANBY          CLOUDY    21  17  86 NW17      29.60S WCI   6
MARSHALL       CLOUDY    19  15  84 W22       29.58F WCI   2
REDWOOD FALLS  LGT SNOW  17  14  88 W14       29.57F FOG     WCI   3
OLIVIA         FLURRIES  18  14  86 W14       29.55F WCI   4
PIPESTONE      CLOUDY    14  10  85 W14       29.61R WCI  -1
WORTHINGTON    LGT SNOW  18  14  86 W24       29.60R FOG     WCI   0
JACKSON        CLOUDY    21  19  93 W22       29.59R FOG     WCI   5
TRACY          LGT SNOW  20  17  90 W10G22    29.58S WCI   8
SLAYTON        CLOUDY    17  14  89 W22G28    29.59R FOG     WCI  -1
$$
MNZ065>067-074>077-082>085-091>093-250500-
   South Central Minnesota

CITY           SKY/WX    TMP DP  RH WIND       PRES   REMARKS
MANKATO        LGT SNOW  23  20  88 W24       29.54S FOG     WCI   7
NEW ULM        CLOUDY    18  16  93 W17       29.56S FOG     WCI   2
ST JAMES       CLOUDY    19  18  93 SW15      29.59R FOG     WCI   5
FAIRMONT       FLURRIES  19  16  88 W22       29.59R WCI   2
GLENCOE        LGT SNOW  27  27 100 W7        29.51F WCI  19
FARIBAULT      LGT SNOW  27  27 100 SW10G16   29.50R WCI  17
OWATONNA       LGT SNOW  27  25  93 W21G30    29.51R WCI  13
WASECA         CLOUDY    23  21  93 SW20      29.54R FOG     WCI   8
ALBERT LEA     CLOUDY    23  21  93 W9        29.54R WCI  13
$$
MNZ078>079-086>088-094>096-250500-
   Southeast Minnesota

CITY           SKY/WX    TMP DP  RH WIND       PRES   REMARKS
ROCHESTER      CLOUDY    31  29  92 SW28G37   29.48F WCI  17
RED WING       LGT SNOW  32  30  93 S3        29.48F
STANTON        LGT SNOW  29  28  93 CALM      29.47F
DODGE CENTER   LGT SNOW  27  25  93 W16       29.49R WCI  14
WINONA         LGT SNOW  34  34 100 CALM      29.48F
AUSTIN         MIX PCPN  27  23  86 W13G20    29.53R WCI  16
PRESTON        LGT SNOW  31  31  96 SW10      29.49F WCI  23
$$
ABBREVIATIONS USED IN REMARKS
   TC - TEMPERATURES IN CELSIUS
  WCI - WIND CHILL INDEX
   HX - HEAT INDEX
  VSB - VISIBILITY
$$




USA.gov is the U.S. government's official web portal to all federal, state and local government web resources and services.